Regional Weather Roundup
Issued by NWS State College, PA

Home | Current Version | Previous Version | Graphics & Text | Print | Product List | Glossary Off
Versions: 1 2 3 4 5 6 7 8 9 10 11 12 13 14 15 16 17 18 19 20 21 22 23 24 25 26 27 28 29 30 31 32 33 34 35 36 37 38 39 40 41 42 43 44 45 46 47 48 49 50

702
ASUS41 KCTP 141210
RWRCTP

REGIONAL WEATHER ROUNDUP
NATIONAL WEATHER SERVICE STATE COLLEGE PA
700 AM EST SUN FEB 14 2016

Note: "fair" indicates few or no clouds below 12,000 feet with no
significant weather and/or obstructions to visibility.

* = STATION THAT DOES NOT REPORT PRECIPITATION /E.G. RAIN...SNOW...ETC/
    THUNDER OR FOG.

PAZ002>004-007>009-013>016-020>023-029>032-141300-
WESTERN PENNSYLVANIA

CITY           SKY/WX    TMP DP  RH WIND       PRES   REMARKS
ERIE           MOCLDY    11   0  61 N6        30.46S WCI   1
MEADVILLE      LGT SNOW   6   1  80 CALM      30.39R
FRANKLIN*      CLOUDY     1  -6  71 CALM      30.39S
NEW CASTLE     FAIR      -9 -14  78 CALM      30.45S
BEAVER COUNTY  NOT AVBL
BUTLER*        CLOUDY    -4  -9  77 CALM      30.45S
PITTSBURGH INT CLOUDY    -1  -6  79 CALM      30.43S
PITTSBURGH     CLOUDY     5   0  79 W5        30.42S WCI  -4
INDIANA*       CLOUDY     0  -4  85 CALM      30.44S
LATROBE        CLEAR      0  -2  92 CALM      30.45R
WASHINGTON CO* CLOUDY    -6 -11  77 CALM      30.43S
$$

PAZ004>006-010>012-017>019-024>028-033>037-041-042-045-046-049>053-141300-
CENTRAL PENNSYLVANIA

CITY           SKY/WX    TMP DP  RH WIND       PRES   REMARKS
BRADFORD       CLOUDY    -8 -12  83 CALM      30.30R
DUBOIS         CLEAR     -5 -11  75 CALM      30.34S
CLEARFIELD     CLEAR      1  -6  72 W5        30.38S WCI  -9
JOHNSTOWN      CLOUDY     0  -7  72 NW10      30.29R WCI -16
ALTOONA        PTCLDY     3  -4  72 NW6       30.39R WCI  -8
STATE COLLEGE  PTCLDY     1  -4  78 NW6       30.41R WCI -10
WILLIAMSPORT   PTCLDY     0 -12  57 NW12      30.50R WCI -17
SELINSGROVE    PTCLDY    -1  -6  79 N5        30.51R WCI -11
FT INDIANTOWN  PTCLDY     6  -8  51 VRB5      30.47R WCI  -3
CAPITAL CITY   PTCLDY     9  -6  50 W8        30.50R WCI  -3
HARRISBURG     CLEAR      9  -4  55 NW9       30.50R WCI  -4
YORK           PTCLDY    -5 -11  75 NW5       30.49R WCI -16
$$

PAZ038>040-043-044-047-048-054-055-060>062-067>071-141300-
EASTERN PENNSYLVANIA

CITY           SKY/WX    TMP DP  RH WIND       PRES   REMARKS
SCRANTON       CLEAR    N/A N/A N/A N10G17    30.43R
MOUNT POCONO   CLEAR    -11 -19  68 NW15      30.24R WCI -33
ALLENTOWN      CLEAR      2 -11  54 NW9       30.48R WCI -13
QUAKERTOWN*    SUNNY      1 -11  55 N3        30.47R
READING        PTCLDY     4 -10  52 N8        30.50R WCI  -9
LANCASTER      PTCLDY     2  -8  63 N6        30.49R WCI  -9
COATESVILLE    MOSUNNY    5  -8  56 NW5       30.46R WCI  -4
POTTSTOWN      PTCLDY     4 -11  50 NW8       30.50R WCI  -9
BLUE BELL        N/A      5  -9  51 W5        30.49R WCI  -4
DOYLESTOWN     CLEAR      1 -13  51 NW8       30.47R WCI -13
WILLOW GROVE   NOT AVBL
NORTH PHILA    PTCLDY     7 -11  43 NW20G26   30.53R WCI -13
PHILADELPHIA   PTCLDY     9 -12  38 NW13      30.53R WCI  -7
$$




USA.gov is the U.S. government's official web portal to all federal, state and local government web resources and services.